Current Version              Previous Version:    01  02  03  04  05  06  07  08  09  10  11  12  13  14  15  16  17  18  19  20  21  22  23  24  25  26  27  28  29  30  
   31  32  33  34  35  36  37  38  39  40  41  42  43  44  45  46  47  48  49  50  51  52  53  54  55  56  57  58  59  60  

[Printable]
773
ASUS44 KLUB 200201
RWRTX
WEST TEXAS WEATHER ROUNDUP
NATIONAL WEATHER SERVICE LUBBOCK TX
900 PM CDT TUE AUG 19 2014

NOTE: "FAIR" INDICATES FEW OR NO CLOUDS BELOW 12,000 FEET WITH NO
SIGNIFICANT WEATHER AND/OR OBSTRUCTIONS TO VISIBILITY.

TXZ004-006>008-010-012-014-016-OKZ002-200300-
TEXAS PANHANDLE/OKLAHOMA PANHANDLE

CITY           SKY/WX    TMP DP  RH WIND       PRES   REMARKS
AMARILLO       CLEAR     80  59  48 SE10      29.89R
BORGER         CLEAR     87  57  35 SE9       29.85R
CANADIAN       CLEAR     84  64  50 S9        29.82S
DALHART        CLEAR     83  57  41 SE15      29.89R
DUMAS          CLEAR     81  56  43 SE9       29.88R
GUYMON         PTCLDY    83  59  44 S7        29.83R
HEREFORD       CLEAR     78  64  63 SE7       29.90R
PAMPA          CLEAR     81  59  47 S10       29.88R
PERRYTON       CLEAR     82  60  46 SE10      29.85R
$$

TXZ026-029-035-045-048-200300-
SOUTHERN PANHANDLE/SOUTH PLAINS/ROLLING PLAINS

CITY           SKY/WX    TMP DP  RH WIND       PRES   REMARKS
CHILDRESS      CLEAR     86  62  44 SE15      29.83R
SEMINOLE       CLEAR     85  56  36 SE13      29.88R
LUBBOCK        PTCLDY    84  63  49 SE15      29.88R
PLAINVIEW      CLEAR     78  62  56 SE7       29.88R
SNYDER         CLEAR     84  67  56 SE12      29.88R
$$

TXZ052-054-060>062-072-078-127-140-154-169-200300-
PERMIAN BASIN/CONCHO VALLEY/BIG COUNTRY/EDWARDS PLATEAU

CITY           SKY/WX    TMP DP  RH WIND       PRES   REMARKS
ABILENE        CLEAR     84  65  52 S12       29.88R
BIG SPRING     CLEAR     85  64  49 SE12      29.89R
BRADY          LGT RAIN  81  68  65 SE3       29.90R
BROWNWOOD      MOCLDY    82  64  54 SE6       29.89R
JUNCTION       CLEAR     79  71  76 E7        29.88R
MIDLAND        CLEAR     88  60  38 S13       29.86R
ODESSA         CLEAR     86  61  42 S15       29.87R
SAN ANGELO     CLEAR     82  66  58 SE7       29.88R
SONORA         CLEAR     81  66  61 CALM      29.93R
SWEETWATER     CLEAR     82  66  58 SE14      29.91R
WINK           CLEAR     86  61  42 S16       29.83R
$$

TXZ055-058-074-075-080-082-200300-
FAR WEST/SOUTHWEST MOUNTAINS/TRANS PECOS

CITY           SKY/WX    TMP DP  RH WIND       PRES   REMARKS
ALPINE         PTCLDY    74  60  61 S10       30.04R
DRYDEN           N/A     85  65  51 CALM      29.84R
EL PASO        CLOUDY    78  57  48 W8        29.93R
FORT STOCKTON  PTCLDY    81  62  52 S9        29.88R
GUADALUPE PASS PTCLDY    75  58  55 SW21      30.04R
MARFA          PTCLDY    72  61  68 SW3       30.03R
PRESIDIO       FAIR      83  66  56 N3        29.85R
$$

TXZ014-016-019-021>030-083-200300
TEXAS TECH WEST TEXAS MESONET/TEXAS PANHANDLE/NORTHERN SOUTH PLAINS

CITY           SKY/WX    TMP DP  RH WIND       PRES   REMARKS
ABERNATHY 5ENE   N/A     80  61  52 SE7       29.89R
AMARILLO 9NNE    N/A     81  60  48 SE7       29.86R
AMARILLO 7SSE    N/A     79  61  52 SE8       29.90R
AMHERST 1NE      N/A     78  61  55 SE8       29.88R
BOOTLEG 11WNW    N/A     79  57  46 SE10      29.94R
CANADIAN 6E      N/A     83  64  51 SE9       29.82S
CAPROCK CYN SP   N/A     83  63  51 SE12      29.85R
CHILDRESS 2NNE   N/A     86  61  43 SE14      29.82R
CLARENDON 2WSW   N/A     82  62  50 SE9       29.85S
CLAUDE 12SW      N/A     82  59  45 S5        29.89R
FLOYDADA 2NNE    N/A     81  61  51 SE10      29.88R
FRIONA 2NE       N/A     77  62  58 SE8       29.91R
GOODLETT 3W      N/A     87  61  42 SE12      29.81R
HART 3N          N/A     74  65  74 E6        29.89S
HEREFORD 2NW     N/A     80  59  48 SE7       29.89S
MCLEAN 1E        N/A     80  60  51 SE9       29.85S
MEMPHIS 1NE      N/A     86  62  45 SE12      29.82R
MULESHOE 2SSW    N/A     79  59  50 SE6       29.88R
OLTON 6S         N/A     76  62  61 SE8       29.88R
PALO DURO SP     N/A     84  60  43 S7        29.89R
PAMPA 2E         N/A     81  61  50 SE12      29.88R
PLAINVIEW 1S     N/A     82  62  49 SE6       29.87S
SILVERTON 7ESE   N/A     79  58  49 SE7       29.88R
TULIA 2ENE       N/A     79  61  53 SE8       29.89R
TURKEY 2WSW      N/A     84  64  49 SE13      29.83R
UMBARGER 3NNE    N/A     81  59  47 S8        29.90R
$$

TXZ033>036-039>041-045>048-200300
TEXAS TECH WEST TEXAS MESONET/SOUTH PLAINS

CITY           SKY/WX    TMP DP  RH WIND       PRES   REMARKS
AIKEN 3WSW       N/A     76  65  70 SE6       29.89R
ANTON 6SSW       N/A     84  60  44 SE10      29.87R
BROWNFIELD 2S    N/A     83  59  43 SE14      29.87R
DENVR CTY 7WNW   N/A     85  54  34 SE14      29.87R
GAIL 2ESE        N/A     84  64  50 SE10      29.85R
LAMESA 2SE       N/A     83  62  48 SE12      29.87R
LEVELLAND 4S     N/A     82  60  47 SE9       29.88R
LUBBOCK 3WNW     N/A     84  61  46 SE10      29.88R
MORTON 1ENE      N/A     83  58  42 SE12      29.88R
ODONNELL 1N      N/A     84  59  43 SE8       29.87R
PLAINS 3N        N/A     83  59  44 SE15      29.88R
RALLS 1SE        N/A     82  63  52 SE10      29.89R
REESE CENTER     N/A     84  61  45 SE15      29.87R
SEAGRAVES 1SW    N/A     84  60  44 SE6       29.87R
SEMINOLE 2NNE    N/A     85  56  36 SE14      29.86R
SLATON 2NE       N/A     83  61  48 S12       29.88R
SNYDER 3E        N/A     83  65  54 SE15      29.86R
SUNDOWN 8SW      N/A     83  59  45 SE14      29.88R
TAHOKA 3NNE      N/A     83  61  47 SE10      29.87R
WOLFFORTH 6SSW   N/A     83  61  46 SE13      29.88R
$$

TXZ031-032-036>038-042>044-200300-
TEXAS TECH WEST TEXAS MESONET/ROLLING PLAINS

CITY           SKY/WX    TMP DP  RH WIND       PRES   REMARKS
ASPERMONT 3NE    N/A     85  65  50 SE9       29.83R
FLUVANNA 3WNW    N/A     84  62  46 SE9       29.87R
GRAHAM 5SSW      N/A     84  61  45 SE14      29.86R
GUTHRIE 10WSW    N/A     85  64  48 SE12      29.82R
HASKELL 1NW      N/A     85  61  44 S8        29.83R
JAYTON 1SSE      N/A     84  66  53 SE14      29.83R
KNOX CITY 3NW    N/A     86  58  38 SE12      29.82R
LK A HENRY 1NW   N/A     86  63  45 S10       29.84R
NORTHFIELD 1S    N/A     85  63  46 SE12      29.82R
ODELL 4ENE       N/A     87  63  44 SE12      29.82R
PADUCAH 10SW     N/A     84  63  49 SE10      29.83R
POST 1NE         N/A     85  60  41 S10       29.85R
RRING SPRGS 3N   N/A     83  65  54 SE10      29.86R
SEYMOUR 3NW      N/A     86  63  46 SE10      29.82R
SPUR 1W          N/A     85  62  45 SE8       29.83R
WEINERT 2NNE     N/A     85  64  49 SE12      29.83R
WHITE RVR 6NE    N/A     83  63  49 SE12      29.85R
$$

TXZ052-054-060>062-072-078-127-140-154-169-200300-
TEXAS TECH WEST TEXAS MESONET/PERMIAN BASIN/
CONCHO VALLEY/BIG COUNTRY/EDWARDS PLATEAU

CITY           SKY/WX    TMP DP  RH WIND       PRES   REMARKS
COYANOSA 2N      N/A     85  63  47 E9        29.84R
JUNCTION 1SSW    N/A     78  73  84 E3        29.88R
MERTZON 3NNE     N/A     82  64  54 SE7       29.90R
SAN ANGELO 7NW   N/A     81  65  57 SE12      29.88R
STRLNG CT 4WSW   N/A     85  64  50 SE12      29.88R
ST LAWRNCE 5SW   N/A     84  60  45 SE13      29.87R
SWEETWATR 11SW   N/A     81  66  60 SE14      29.90R
WALL 1E          N/A     76  66  70 SE6       29.89R
$$

TXZ055-058-074-075-080-082-200300-
TEXAS TECH WEST TEXAS MESONET/FAR WEST/SOUTHWEST MOUNTAINS/TRANS PECOS

CITY           SKY/WX    TMP DP  RH WIND       PRES   REMARKS
PRSMN GAP BBNP   N/A     77  63  63 N10       29.87S
GUADLPE MTN NP   N/A     75  56  51 W16       30.03R
$$